Wind_Speed
30 24 14 11 16 28 21 14 13 9 14 16 18 17 12 9 11 18 24 24 28 30 32 35 38 39 39 39 39 32 29 22 19 19 16 9 6 7 8 10 6 3 5 3 4 5 6 12 16
26 24 15 10 26 32 27 20 9 12 13 16 22 13 11 23 18 21 24 29 31 32 34 36 37 36 35 33 32 28 25 19 18 15 14 11 8 10 8 9 7 5 4 1 4 6 6 13 15
19 11 13 10 21 29 22 20 18 14 15 17 17 26 22 22 27 26 29 30 26 22 21 23 25 28 28 27 25 22 19 17 13 9 6 7 10 8 7 7 7 8 5 2 5 7 6 15 12
17 18 14 7 23 15 27 22 15 11 20 18 21 19 30 33 33 28 25 24 21 23 23 24 25 26 24 21 19 14 13 11 6 4 7 11 11 11 8 8 8 8 3 4 7 7 10 17 13
5 23 20 16 19 17 18 23 18 16 19 20 23 21 28 30 26 19 18 19 17 17 16 16 17 18 19 21 15 10 10 9 6 7 14 13 14 10 10 10 8 5 1 3 5 6 13 15 12
31 22 22 18 21 19 28 27 27 24 24 22 20 20 25 20 11 14 12 15 19 19 16 15 12 10 13 15 16 12 13 10 11 17 16 16 15 13 11 8 6 5 3 1 4 3 11 13 12
33 23 27 18 23 28 30 30 29 25 24 23 23 24 26 10 8 10 15 21 21 15 14 11 7 5 12 17 21 17 14 15 20 21 20 16 15 11 8 5 4 6 5 3 2 2 9 8 6
30 31 22 20 31 36 33 24 23 23 20 23 25 28 20 8 11 15 22 24 16 14 14 16 12 13 18 22 23 19 20 23 21 20 17 18 13 8 6 7 7 7 6 3 2 3 5 4 4
23 24 24 26 30 24 19 18 19 18 18 24 24 30 13 9 13 19 24 22 13 14 17 16 17 20 23 26 25 26 25 23 22 20 20 17 14 13 11 9 6 6 4 2 5 5 2 3 6
8 19 28 18 23 16 11 13 15 12 18 26 22 28 10 9 13 16 24 20 16 15 15 17 19 25 28 29 29 27 26 23 21 20 16 14 14 11 11 9 8 6 5 4 5 5 1 4 7
22 18 20 21 28 11 8 12 16 14 19 19 18 24 9 7 13 13 21 21 14 14 15 16 19 27 29 30 31 30 28 26 20 17 13 13 13 11 11 8 7 6 5 2 3 1 5 6 7
21 23 24 30 23 9 10 10 15 15 14 18 13 20 10 8 12 12 16 20 18 15 15 17 21 27 27 29 28 29 27 7 18 14 10 10 9 8 9 9 9 7 6 5 1 3 6 6 7
22 16 17 17 18 13 13 12 14 16 15 16 11 16 12 6 8 12 12 15 18 17 16 16 21 24 26 26 22 20 13 14 14 10 9 8 7 6 4 5 6 7 5 4 6 4 4 5 7
10 4 14 21 23 21 16 13 15 16 13 16 9 14 12 5 3 6 11 8 12 17 18 16 20 23 20 19 15 14 13 14 13 10 7 4 5 3 5 1 4 6 9 12 9 5 6 6 6
10 7 13 11 16 19 15 16 18 22 16 17 8 9 9 7 3 4 5 7 6 10 15 16 18 18 16 13 12 12 12 10 7 4 2 5 5 6 4 3 6 7 3 5 9 10 10 8 7
8 8 15 11 16 15 13 7 20 24 29 22 7 3 8 6 5 2 2 4 6 6 7 12 14 14 13 12 9 8 6 4 2 1 3 1 2 4 3 7 9 7 8 11 13 10 10 8 8
16 11 15 17 10 6 10 12 16 29 33 23 8 4 2 7 5 7 5 3 2 3 5 4 8 11 10 8 6 5 4 4 3 3 3 3 4 3 5 8 6 8 10 9 13 10 12 12 12
14 13 12 8 0 3 11 16 13 17 28 26 20 10 9 4 6 5 7 8 5 3 4 5 3 3 5 5 4 4 5 6 5 4 4 5 6 6 2 2 4 8 13 11 12 14 14 11 12
11 17 15 8 5 7 16 19 10 17 19 27 26 22 16 12 9 8 2 6 9 8 3 4 4 3 4 3 2 2 3 5 5 4 5 7 6 8 10 3 7 12 15 16 13 17 15 14 13
14 9 6 6 10 8 10 4 9 15 14 21 23 27 22 22 21 16 12 8 6 5 8 6 7 9 10 9 7 8 9 9 12 10 11 11 10 6 2 6 12 21 21 23 22 22 17 20 22
13 9 14 11 12 11 14 11 5 4 10 21 22 24 24 20 21 25 19 17 13 9 8 9 9 9 12 12 11 7 6 8 8 10 9 10 12 12 8 7 11 10 14 20 26 28 25 24 26
13 11 12 14 15 15 8 5 13 8 11 8 13 20 19 22 20 19 18 21 21 19 14 13 13 12 11 10 11 11 6 9 11 14 14 17 17 18 17 15 16 22 22 28 28 26 27 31 33
16 14 16 14 15 10 8 3 12 13 16 16 20 25 21 30 28 23 21 17 17 20 20 17 18 16 16 16 14 12 10 11 17 16 17 21 22 23 24 23 24 27 26 28 29 32 30 34 34
18 17 16 17 18 18 8 9 15 21 19 21 23 20 26 33 41 24 22 19 15 16 21 21 22 23 23 19 19 20 19 16 14 18 24 24 25 28 31 33 33 35 37 40 43 40 40 42 42
19 19 18 21 24 25 17 32 28 27 21 17 10 11 14 37 40 29 23 22 18 18 23 24 25 24 25 26 24 24 26 23 26 25 24 30 33 35 37 38 40 43 46 48 47 47 46 51 52
19 20 21 23 32 18 25 23 30 25 21 12 19 16 28 22 33 26 21 22 21 19 23 24 25 26 27 27 29 30 30 30 35 34 34 34 34 39 42 42 42 40 46 51 53 56 56 54 54
20 23 21 27 29 26 27 24 27 22 21 23 26 24 22 15 23 20 15 14 16 17 22 23 25 29 31 32 33 34 36 38 38 38 39 40 39 38 39 40 42 42 44 39 32 27 32 35 32
26 22 24 25 26 30 32 27 19 24 17 22 20 25 20 24 26 19 16 14 14 15 18 19 21 24 29 34 36 38 41 42 42 43 42 42 41 41 37 36 34 32 30 19 21 24 25 27 33
30 28 25 25 26 33 32 34 26 27 27 27 27 29 29 28 26 22 20 17 19 14 17 18 17 19 23 28 33 35 36 37 38 37 38 38 38 39 35 32 36 35 32 23 26 31 31 32 35
33 31 30 29 29 31 28 30 29 37 34 32 28 36 38 32 24 25 23 20 18 16 17 18 18 19 21 23 24 25 27 28 31 33 34 35 35 38 37 36 37 40 37 35 35 37 35 35 44
Wind_Direction
24 20 18 25 59 343 3 5 355 7 4 349 345 340 308 285 280 279 290 287 276 269 265 252 253 260 264 266 265 273 278 285 285 291 301 293 284 197 186 183 180 185 202 224 328 2 347 3 16
26 6 8 322 328 345 347 354 5 29 358 356 330 344 320 299 303 302 297 300 287 275 271 269 267 264 262 263 263 270 278 280 288 293 299 286 212 180 188 182 187 200 186 323 338 356 2 21 34
53 40 3 16 320 337 355 360 12 348 355 347 333 309 303 302 315 309 303 298 298 292 283 275 270 265 263 259 260 261 263 266 276 285 267 218 169 182 163 165 182 171 150 30 341 346 14 22 35
354 12 84 260 317 341 338 347 360 340 352 338 330 313 315 321 308 302 300 304 310 300 289 283 274 266 259 255 252 248 244 244 221 213 191 158 149 147 144 156 162 155 127 5 357 358 21 25 49
16 340 333 303 306 329 328 331 346 327 312 329 333 319 324 309 305 308 311 319 318 319 310 299 281 263 250 236 226 216 187 165 162 172 148 146 140 132 136 144 152 175 263 325 350 21 29 33 51
323 318 329 324 331 333 332 333 322 324 319 324 330 327 330 326 331 321 332 340 332 328 321 313 290 254 222 202 183 168 153 150 153 143 144 143 134 132 135 140 140 159 164 113 354 53 32 42 57
324 322 323 322 319 336 328 322 321 333 332 332 327 341 340 3 352 346 349 343 339 343 349 8 30 134 160 160 160 146 140 144 144 142 141 129 137 141 141 139 147 150 145 111 22 78 43 67 53
299 319 317 302 302 310 308 320 336 338 345 331 338 347 352 33 24 8 357 351 359 13 29 45 67 110 131 139 150 141 139 140 142 143 139 140 143 140 118 104 105 124 135 122 142 117 64 61 28
323 317 300 288 298 300 310 324 341 346 345 340 345 348 5 48 33 4 359 3 25 42 50 66 87 111 127 134 134 130 132 139 141 139 142 143 143 133 109 103 105 120 121 129 147 161 334 19 13
286 292 298 295 317 306 319 333 345 342 315 337 339 349 6 26 16 18 10 18 40 56 60 80 102 116 121 122 123 130 133 136 136 138 135 138 137 130 120 108 94 122 109 110 138 158 41 41 42
310 309 316 312 323 312 338 349 346 339 330 340 347 356 12 17 10 13 19 27 50 64 64 87 106 117 123 125 130 132 133 131 134 136 130 127 125 113 113 106 91 72 66 80 190 239 295 340 347
319 314 318 325 324 318 357 355 350 355 337 341 349 359 13 24 18 24 21 37 53 65 67 90 119 126 125 129 134 132 122 105 141 139 129 115 112 112 117 98 84 71 52 63 144 303 307 308 294
314 336 330 338 344 340 351 350 359 353 353 338 342 358 6 10 26 36 29 40 53 68 78 99 119 129 131 130 138 146 138 131 131 128 137 124 104 91 91 107 107 70 29 16 38 27 357 338 306
322 345 333 312 316 344 353 354 8 354 356 348 351 353 1 352 39 30 35 39 62 68 77 100 127 132 126 123 126 134 126 134 141 147 153 86 42 326 236 205 353 323 353 2 347 316 313 330 350
308 280 345 317 328 340 338 343 8 3 357 352 340 353 355 354 359 25 37 43 56 76 90 104 129 138 136 129 130 141 147 146 139 136 76 44 32 56 74 43 25 29 40 18 335 333 336 314 315
298 295 290 320 308 318 358 9 352 7 355 344 319 33 25 10 31 23 4 41 40 54 92 116 134 145 156 154 145 144 153 159 174 275 330 358 316 15 21 350 333 312 324 333 18 350 313 306 302
283 284 286 296 326 318 24 11 355 4 358 352 312 211 82 1 63 19 6 347 352 10 30 76 143 156 171 184 203 224 230 241 253 261 258 276 249 227 323 336 5 7 344 349 353 346 343 332 303
276 266 298 300 130 16 45 348 320 5 351 7 13 251 268 287 317 298 330 358 351 332 330 2 7 221 221 216 226 251 285 299 296 322 311 285 241 219 37 339 339 354 12 342 324 347 341 350 346
251 248 254 242 107 102 104 83 359 319 334 340 2 5 258 264 267 293 63 13 357 357 309 310 304 286 262 232 251 316 309 294 296 331 284 254 251 256 276 286 316 322 317 329 318 320 331 341 310
263 239 188 179 111 111 70 83 170 236 310 319 322 347 337 267 269 266 262 289 317 348 342 322 282 275 268 262 272 282 275 266 262 262 278 286 289 250 278 333 306 325 310 314 311 307 307 307 310
250 238 177 196 135 138 104 41 155 278 275 306 301 323 334 326 283 268 264 263 270 273 278 294 298 284 277 276 276 248 244 250 244 246 252 258 270 263 258 280 291 297 277 292 286 289 293 300 296
238 237 215 181 156 166 198 262 226 271 297 287 297 290 320 326 316 309 301 273 264 262 266 270 267 272 280 274 256 256 253 240 226 239 241 253 255 256 251 251 250 292 266 264 282 289 284 285 286
234 223 213 182 186 178 210 229 232 267 308 267 265 293 307 326 319 309 311 301 283 269 255 258 260 261 262 266 249 255 279 274 250 256 261 249 253 256 251 255 270 278 274 270 273 283 281 286 286
235 228 227 173 185 166 227 272 295 281 291 276 280 277 305 313 318 301 306 309 294 268 263 262 262 258 258 261 262 255 259 277 277 276 268 268 265 259 259 259 262 268 271 271 273 278 281 284 283
236 229 224 182 196 195 236 247 266 269 281 303 281 299 279 306 307 303 311 309 288 271 269 262 256 255 258 261 265 266 265 263 273 270 271 269 266 265 265 268 270 265 266 269 272 274 274 276 278
235 234 227 209 208 226 233 232 235 252 254 224 227 262 264 254 292 291 297 315 304 280 276 274 267 257 263 269 268 270 272 273 273 277 272 273 274 272 269 268 273 275 273 273 275 277 279 290 293
234 235 234 230 222 223 234 242 240 237 248 225 249 253 223 240 279 298 290 302 301 294 289 288 278 270 269 271 266 269 269 269 272 273 273 270 271 276 282 283 288 290 292 292 293 296 298 297 307
245 233 235 236 236 220 231 227 237 241 226 240 247 257 274 300 297 301 299 299 299 310 290 295 285 275 271 265 267 271 272 270 270 271 271 273 276 281 284 288 291 287 297 300 314 312 312 324 332
249 246 239 236 237 238 226 234 231 209 219 220 252 263 267 280 291 298 308 316 306 306 302 294 289 283 277 272 272 273 274 272 273 275 276 279 279 281 284 284 286 278 288 286 308 315 316 321 328
249 252 248 242 239 245 238 231 224 214 222 208 252 260 258 276 290 294 296 303 304 300 300 295 289 283 278 274 274 275 277 277 278 280 281 283 286 284 284 285 278 278 287 280 300 308 313 319 323
Height
11007 11005 11004 10998 10995 10991 10990 10987 10987 10987 10978 10977 10973 10972 10970 10968 10968 10967 10964 10962 10959 10955 10954 10954 10954 10953 10954 10954 10955 10957 10960 10962 10965 10967 10969 10968 10969 10968 10967 10969 10972 10973 10973 10972 10971 10970 10969 10967 10965
11005 11007 11006 10999 10988 10990 10991 10986 10987 10986 10978 10979 10974 10971 10969 10966 10963 10960 10958 10955 10952 10949 10947 10947 10947 10947 10948 10948 10950 10953 10956 10959 10963 10965 10966 10967 10967 10966 10968 10969 10972 10972 10972 10972 10971 10969 10969 10968 10966
11007 11008 11005 11005 10988 10991 10990 10985 10985 10980 10979 10980 10978 10972 10968 10963 10959 10955 10953 10950 10946 10943 10941 10940 10940 10939 10941 10944 10946 10950 10954 10957 10961 10963 10966 10966 10967 10967 10968 10970 10972 10973 10973 10972 10970 10968 10969 10968 10966
11008 11010 11011 11001 10999 10992 10989 10986 10981 10980 10977 10979 10977 10970 10964 10956 10954 10952 10949 10946 10942 10940 10937 10935 10934 10934 10935 10939 10943 10947 10951 10955 10959 10963 10965 10966 10967 10969 10969 10970 10972 10973 10973 10971 10969 10969 10970 10968 10966
11008 11008 11005 10999 10996 10990 10988 10983 10978 10978 10977 10977 10974 10970 10964 10957 10952 10950 10948 10945 10942 10938 10934 10931 10928 10928 10930 10935 10941 10945 10949 10955 10959 10962 10965 10967 10968 10970 10970 10971 10972 10973 10972 10971 10970 10970 10970 10968 10967
11008 11004 11000 10994 10989 10987 10984 10981 10979 10978 10976 10974 10975 10972 10967 10960 10954 10951 10950 10945 10940 10935 10930 10926 10923 10922 10925 10931 10939 10944 10949 10954 10959 10962 10965 10968 10969 10971 10972 10972 10972 10972 10972 10971 10970 10970 10971 10970 10968
11004 11000 10993 10988 10987 10985 10983 10981 10979 10977 10973 10973 10972 10966 10962 10960 10957 10954 10949 10943 10938 10933 10928 10923 10921 10921 10925 10930 10938 10944 10948 10953 10958 10962 10966 10968 10971 10972 10973 10972 10972 10972 10971 10971 10970 10971 10971 10970 10968
10996 10995 10990 10991 10988 10987 10987 10983 10979 10975 10975 10973 10969 10964 10960 10959 10956 10953 10948 10942 10937 10933 10929 10926 10924 10924 10928 10933 10939 10944 10948 10953 10958 10961 10964 10968 10970 10973 10973 10973 10972 10971 10971 10970 10970 10971 10970 10969 10969
11006 10997 10995 10992 10994 10990 10987 10984 10980 10977 10975 10973 10969 10964 10959 10958 10958 10953 10947 10943 10939 10936 10933 10932 10930 10930 10933 10937 10941 10946 10952 10956 10960 10962 10964 10966 10969 10971 10972 10972 10972 10972 10971 10969 10969 10969 10968 10969 10969
11007 11000 10994 10991 10991 10989 10986 10983 10981 10978 10975 10973 10969 10965 10960 10958 10958 10957 10951 10946 10942 10940 10940 10937 10937 10936 10938 10941 10946 10950 10954 10958 10962 10966 10968 10968 10968 10971 10973 10973 10973 10972 10971 10970 10969 10969 10967 10968 10968
10997 10995 10992 10990 10989 10988 10985 10981 10979 10978 10975 10974 10970 10966 10962 10960 10958 10957 10955 10950 10947 10945 10943 10942 10942 10942 10943 10946 10949 10952 10955 10960 10965 10969 10971 10970 10970 10972 10975 10976 10976 10974 10973 10972 10971 10970 10968 10968 10967
10992 10988 10988 10985 10984 10983 10983 10981 10978 10978 10977 10973 10972 10968 10965 10962 10961 10959 10958 10956 10952 10950 10948 10947 10947 10947 10950 10952 10955 10958 10962 10967 10968 10970 10972 10972 10972 10973 10976 10978 10978 10977 10975 10973 10972 10970 10969 10968 10966
10989 10987 10985 10983 10983 10982 10982 10982 10981 10978 10977 10975 10972 10970 10966 10965 10964 10963 10961 10960 10958 10956 10954 10954 10954 10956 10957 10959 10962 10965 10968 10968 10971 10974 10975 10975 10975 10976 10978 10980 10980 10979 10977 10975 10974 10972 10969 10968 10967
10992 10986 10985 10982 10981 10983 10982 10982 10980 10978 10977 10975 10972 10970 10967 10966 10965 10965 10965 10964 10963 10961 10961 10961 10962 10963 10964 10966 10967 10969 10969 10970 10971 10973 10976 10975 10975 10976 10978 10979 10979 10978 10977 10975 10974 10973 10970 10968 10966
10989 10984 10980 10981 10983 10980 10977 10977 10977 10977 10974 10973 10972 10970 10969 10967 10966 10966 10966 10967 10967 10966 10965 10966 10966 10967 10967 10969 10970 10971 10972 10973 10974 10975 10975 10976 10975 10976 10978 10979 10979 10978 10976 10973 10972 10972 10971 10969 10967
10982 10979 10980 10983 10983 10980 10979 10977 10976 10974 10974 10972 10972 10970 10969 10968 10968 10968 10968 10969 10969 10970 10971 10970 10970 10971 10970 10970 10971 10972 10973 10974 10975 10975 10975 10976 10976 10977 10978 10978 10977 10976 10975 10973 10971 10970 10968 10967 10966
10980 10979 10979 10981 10983 10979 10980 10978 10978 10974 10975 10972 10971 10971 10970 10971 10970 10970 10968 10969 10970 10971 10973 10974 10973 10972 10972 10972 10973 10973 10974 10974 10976 10976 10976 10976 10977 10977 10977 10976 10975 10975 10974 10972 10971 10969 10967 10965 10964
10978 10979 10981 10979 10981 10979 10978 10978 10981 10978 10978 10975 10973 10973 10973 10972 10972 10971 10970 10971 10971 10972 10973 10973 10974 10974 10974 10974 10974 10974 10975 10975 10976 10976 10977 10976 10976 10975 10976 10974 10975 10974 10972 10972 10970 10968 10965 10963 10961
10978 10978 10979 10979 10979 10978 10982 10979 10992 10983 10981 10975 10974 10972 10973 10972 10973 10973 10972 10972 10972 10971 10973 10973 10973 10974 10974 10975 10976 10976 10976 10976 10976 10976 10976 10975 10975 10973 10973 10973 10971 10971 10970 10970 10968 10968 10964 10961 10958
10973 10975 10976 10977 10979 10978 10980 10980 10984 10985 10981 10978 10977 10973 10971 10970 10972 10973 10973 10973 10973 10973 10972 10972 10972 10972 10973 10974 10975 10975 10975 10976 10976 10975 10975 10973 10972 10970 10971 10970 10968 10968 10967 10967 10965 10963 10960 10956 10955
10968 10969 10971 10972 10976 10976 10978 10977 10976 10975 10974 10977 10979 10975 10970 10967 10968 10969 10969 10970 10971 10971 10972 10971 10970 10971 10971 10973 10973 10973 10974 10974 10974 10974 10973 10972 10970 10968 10967 10965 10965 10962 10963 10962 10959 10957 10956 10953 10950
10963 10965 10966 10967 10971 10971 10972 10973 10974 10970 10970 10970 10973 10973 10970 10971 10967 10965 10965 10965 10966 10968 10968 10969 10969 10969 10969 10969 10971 10971 10973 10972 10972 10971 10971 10969 10967 10966 10964 10963 10961 10959 10957 10956 10954 10953 10950 10946 10944
10959 10960 10961 10965 10969 10972 10969 10967 10968 10966 10968 10969 10972 10975 10971 10970 10968 10963 10961 10960 10961 10963 10964 10966 10966 10966 10966 10967 10967 10968 10969 10968 10968 10968 10965 10965 10962 10963 10960 10958 10955 10953 10951 10950 10948 10945 10943 10940 10937
10954 10955 10957 10963 10962 10961 10962 10964 10965 10965 10964 10965 10970 10972 10971 10970 10968 10963 10960 10957 10957 10956 10958 10959 10961 10962 10963 10964 10963 10964 10963 10964 10962 10962 10959 10958 10956 10955 10953 10951 10949 10948 10945 10943 10940 10936 10934 10931 10928
10949 10951 10953 10957 10955 10953 10955 10957 10960 10962 10963 10964 10970 10965 10968 10962 10962 10962 10954 10953 10954 10953 10951 10954 10955 10957 10958 10959 10959 10958 10958 10960 10957 10956 10954 10952 10949 10946 10945 10942 10940 10940 10937 10934 10932 10928 10925 10922 10918
10943 10944 10946 10948 10946 10952 10951 10952 10953 10956 10957 10959 10962 10967 10972 10967 10962 10961 10952 10948 10947 10948 10945 10947 10949 10951 10953 10954 10954 10953 10953 10953 10950 10948 10946 10944 10942 10939 10936 10934 10931 10929 10927 10926 10923 10919 10916 10911 10906
10939 10938 10941 10941 10943 10946 10946 10948 10952 10952 10951 10953 10954 10958 10962 10963 10961 10953 10951 10948 10946 10945 10941 10941 10943 10945 10946 10946 10946 10945 10944 10943 10942 10939 10937 10934 10932 10930 10928 10924 10921 10919 10917 10914 10911 10907 10904 10899 10893
10931 10935 10934 10935 10938 10939 10937 10944 10948 10945 10946 10944 10944 10947 10946 10945 10946 10945 10944 10943 10941 10938 10934 10936 10936 10937 10938 10938 10938 10937 10935 10934 10932 10930 10928 10925 10923 10921 10919 10914 10913 10907 10907 10904 10902 10900 10896 10889 10884
10925 10928 10930 10931 10931 10928 10935 10937 10943 10942 10940 10942 10940 10940 10939 10941 10940 10936 10936 10934 10935 10937 10934 10933 10933 10932 10932 10931 10930 10929 10927 10925 10924 10921 10919 10918 10914 10911 10910 10907 10903 10900 10899 10896 10893 10891 10887 10882 10875
10918 10920 10922 10924 10924 10924 10929 10931 10931 10935 10936 10941 10939 10935 10936 10938 10936 10933 10932 10929 10928 10931 10930 10930 10930 10928 10927 10926 10924 10923 10921 10919 10916 10913 10912 10909 10906 10902 10901 10899 10894 10890 10890 10889 10886 10883 10878 10874 10868